sat.trackr.live / text

‹ back to catalog

STARLINK-35121

NORAD 65737 · 2025-216D

PAYLOAD ACTIVE UNKNOWN

§ Identity

Operator
Country
US
Launch date
2025-09-25
Launch site
AFETR
Launch vehicle
Mass (kg)
RCS (m²)

Purposes: comms

External: N2YO · Heavens-Above · Gunter

§ Orbital elements

Epoch: 2026-09-20T05:32:27.472128Z

Period
93.85 min
Inclination
53.1573°
Eccentricity
0.0001159
Mean motion
15.34388172 rev/d
Perigee alt
461.9 km
Apogee alt
463.5 km
Semi-major
6,840.9 km
B*
3.6032e-4
RAAN
146.7923°
Arg perigee
83.7538°
Mean anomaly
276.3597°
Rev number
5,636

§ Raw data

STARLINK-351211 65737U 25216D   26263.23087352  .00011812  00000+0  36032-3 0  99922 65737  53.1573 146.7923 0001159  83.7538 276.3597 15.34388172 56367

JSON: /api/v1/satellites/65737 · /tle

For live sub-satellite position, see the globe view (requires WebGL).

§ Visibility from observer

Set your observer location to see the next 7 days of passes ≥ 10°. The values pass through the URL so the page stays shareable.

No JS? Fill the form by hand. The geolocation button needs JavaScript.